sat.trackr.live / text

‹ back to catalog

2026-052D

NORAD 68201 · 2026-052D

PAYLOAD ACTIVE UNKNOWN

§ Identity

Operator
Country
PRC
Launch date
2026-03-16
Launch site
JSC
Launch vehicle
Mass (kg)
RCS (m²)

External: N2YO · Heavens-Above · Gunter

§ Orbital elements

Epoch: 2026-05-25T03:53:57.713856Z

Period
95.29 min
Inclination
97.5343°
Eccentricity
0.0012280
Mean motion
15.11103765 rev/d
Perigee alt
524.3 km
Apogee alt
541.3 km
Semi-major
6,911.0 km
B*
3.1622e-4
RAAN
220.3399°
Arg perigee
35.0953°
Mean anomaly
325.1084°
Rev number
1,057

§ Raw data

2026-052D1 68201U 26052D   26145.16247354  .00005241  00000+0  31622-3 0  99902 68201  97.5343 220.3399 0012280  35.0953 325.1084 15.11103765 10572

JSON: /api/v1/satellites/68201 · /tle

For live sub-satellite position, see the globe view (requires WebGL).

§ Visibility from observer

Set your observer location to see the next 7 days of passes ≥ 10°. The values pass through the URL so the page stays shareable.

No JS? Fill the form by hand. The geolocation button needs JavaScript.